This demonstration page uses our WeatherBlox Daily Observations layout. Learn more.

Left ArrowRight Arrow

34.74481, -87.66753

Hourly Observations for October 29, 2016

Temp ( °F °C ) Dew Point ( °F °C ) Humidity (%) Winds ( mph kmh ) Pressure ( in mb ) Visibility ( mi km ) Precip ( " mm )
12:53 am 00:53 Clear 55 12.8 50 10 83 83 Calm 30.19 1023 10 16 0.00 0.00
1:53 am 01:53 Clear 56 13.3 51 10.6 84 84 Calm 30.20 1023 10 16 0.00 0.00
2:53 am 02:53 Clear 55 12.8 51 10.6 87 87 Calm 30.20 1023 9 14 0.00 0.00
3:53 am 03:53 Clear 54 12.2 50 10 87 87 Calm 30.20 1023 10 16 0.00 0.00
4:53 am 04:53 Clear 53 11.7 50 10 89 89 Calm 30.20 1023 8 13 0.00 0.00
5:53 am 05:53 Clear 53 11.7 50 10 89 89 E 3 6 30.22 1023 9 14 0.00 0.00
6:53 am 06:53 Clear 54 12.2 51 10.6 90 90 Calm 30.22 1023 8 13 0.00 0.00
7:53 am 07:53 Sunny 55 12.8 51 10.6 87 87 ESE 3 6 30.24 1024 7 11 0.00 0.00
8:53 am 08:53 Sunny 64 17.8 54 12.2 70 70 SE 3 6 30.24 1024 10 16 0.00 0.00
9:53 am 09:53 Sunny 73 22.8 54 12.2 51 51 Calm 30.24 1024 10 16 0.00 0.00
10:53 am 10:53 Sunny 79 26.1 54 12.2 42 42 Calm 30.23 1024 10 16 0.00 0.00
11:53 am 11:53 Sunny 84 28.9 53 11.7 34 34 VRB 5 7 30.20 1023 10 16 0.00 0.00
12:53 pm 12:53 Partly Cloudy 86 30 51 10.6 30 30 S 7 11 30.17 1022 10 16 0.00 0.00
1:53 pm 13:53 Sunny 87 30.6 50 10 28 28 SW 12 19 30.14 1021 10 16 0.00 0.00
2:53 pm 14:53 Sunny 87 30.6 49 9.4 27 27 W 6 9 30.12 1020 10 16 0.00 0.00
3:53 pm 15:53 Sunny 86 30 50 10 29 29 W 12 19 30.11 1020 10 16 0.00 0.00
4:53 pm 16:53 Sunny 85 29.4 49 9.4 29 29 W 10 17 30.11 1020 10 16 0.00 0.00
5:53 pm 17:53 Sunny 80 26.7 49 9.4 34 34 WSW 6 9 30.11 1020 10 16 0.00 0.00
6:53 pm 18:53 Clear 72 22.2 49 9.4 44 44 Calm 30.13 1020 10 16 0.00 0.00
7:53 pm 19:53 Clear 66 18.9 54 12.2 65 65 S 3 6 30.14 1021 10 16 0.00 0.00
8:53 pm 20:53 Clear 67 19.4 51 10.6 57 57 S 3 6 30.15 1021 10 16 0.00 0.00
9:53 pm 21:53 Clear 63 17.2 50 10 63 63 SSE 3 6 30.15 1021 10 16 0.00 0.00
10:53 pm 22:53 Clear 61 16.1 50 10 67 67 Calm 30.15 1021 10 16 0.00 0.00
11:53 pm 23:53 Clear 61 16.1 51 10.6 70 70 Calm 30.15 1021 10 16 0.00 0.00

Powered by AerisWeather